Date String (YYYY-MM-DD hh:mm:ss) UTC,Instrument flags,absolute air pressure of the measurement (hPa),sample flow rate (lpm),inlet stack bypass flow (lpm),air temperature of the measurement (°C),ambient temperature measured by the external sensor (°C),aerosol sample conditioner tube jacket temperature (°C),OPC LED temperature (°C),internal box temperature (°C),relative humidity of the measurement (%),span deviation,mass concentration of particles derived from Lorenz-Mie calculation of OPC scattering (μg/m³),mass concentration of particles derived from Lorenz-Mie calculation of OPC scattering (μg/m³),mass concentration of particles derived from Lorenz-Mie calculation of OPC scattering (μg/m³)
DateTimeUTC,F1_M11,P_M11,Q1_M11,Q2_M11,T1_M11,T2_M11,T3_M11,T4_M11,T5_M11,U1_M11,ZSPAN_M11,X0_M11,X2_M11,X1_M11
2023-10-31 06:00:00,SystemResetWarning,0838.0,5.00,000.00,021.1,020.1,000.0,029.5,022.6,9.5,0000.0,0004.51,0003.34,0003.16
2023-10-31 06:01:00,SystemResetWarning,0838.0,4.99,000.00,021.1,020.1,000.0,029.5,022.6,9.5,0000.0,0004.62,0003.37,0003.16
2023-10-31 06:02:00,SystemResetWarning,0838.0,4.99,000.00,021.1,020.2,000.0,029.5,022.6,9.6,0000.0,0004.54,0003.35,0003.16
2023-10-31 06:03:00,SystemResetWarning,0838.0,5.00,000.00,021.1,020.2,000.0,029.5,022.6,9.7,0000.0,0004.35,0003.33,0003.16
2023-10-31 06:04:00,SystemResetWarning,0837.9,4.99,000.00,021.2,020.2,000.0,029.5,022.6,9.7,0000.0,0004.36,0003.33,0003.16
2023-10-31 06:05:00,SystemResetWarning,0838.0,5.00,000.00,021.2,020.3,000.0,029.5,022.6,9.9,0000.0,0004.44,0003.35,0003.16
2023-10-31 06:06:00,SystemResetWarning,0838.0,5.00,000.00,021.2,020.3,000.0,029.5,022.6,10.2,0000.0,0004.45,0003.35,0003.15
2023-10-31 06:07:00,SystemResetWarning,0838.1,5.00,000.00,021.2,020.3,000.0,029.5,022.6,10.3,0000.0,0004.45,0003.34,0003.14
2023-10-31 06:08:00,SystemResetWarning,0838.1,5.00,000.00,021.2,020.3,000.0,029.5,022.7,10.5,0000.0,0005.66,0003.33,0003.12
2023-10-31 06:09:00,SystemResetWarning,0838.0,5.00,000.00,021.2,020.3,000.0,029.6,022.7,10.5,0000.0,0005.74,0003.34,0003.13
2023-10-31 06:10:00,SystemResetWarning,0838.0,5.00,000.00,021.2,020.3,000.0,029.6,022.7,10.5,0000.0,0005.74,0003.33,0003.13
2023-10-31 06:11:00,SystemResetWarning,0838.0,5.00,000.00,021.2,020.4,000.0,029.6,022.7,10.7,0000.0,0005.68,0003.32,0003.12
2023-10-31 06:12:00,SystemResetWarning,0837.9,5.00,000.00,021.2,020.4,000.0,029.6,022.7,10.9,0000.0,0005.66,0003.31,0003.11
2023-10-31 06:13:00,SystemResetWarning,0838.0,5.00,000.00,021.3,020.4,000.0,029.6,022.7,10.9,0000.0,0005.74,0003.33,0003.11
2023-10-31 06:14:00,SystemResetWarning,0838.1,5.00,000.00,021.3,020.4,000.0,029.6,022.7,11.0,0000.0,0005.79,0003.33,0003.11
2023-10-31 06:15:00,SystemResetWarning,0838.1,5.00,000.00,021.3,020.4,000.0,029.6,022.7,11.0,0000.0,0005.77,0003.32,0003.09
2023-10-31 06:16:00,SystemResetWarning,0838.0,4.99,000.00,021.3,020.4,000.0,029.6,022.7,11.0,0000.0,0005.73,0003.29,0003.08
2023-10-31 06:17:00,SystemResetWarning,0838.1,4.99,000.00,021.3,020.4,000.0,029.6,022.7,11.0,0000.0,0005.79,0003.29,0003.07
2023-10-31 06:18:00,SystemResetWarning,0838.1,4.99,000.00,021.3,020.4,000.0,029.6,022.7,11.0,0000.0,0005.91,0003.32,0003.08
2023-10-31 06:19:00,SystemResetWarning,0838.1,5.00,000.00,021.3,020.4,000.0,029.6,022.7,11.0,0000.0,0004.79,0003.32,0003.08
2023-10-31 06:20:00,SystemResetWarning,0838.1,5.01,000.00,021.3,020.4,000.0,029.6,022.7,11.1,0000.0,0004.59,0003.30,0003.06
2023-10-31 06:21:00,SystemResetWarning,0838.2,5.01,000.00,021.3,020.4,000.0,029.6,022.7,11.2,0000.0,0004.73,0003.30,0003.05
2023-10-31 06:22:00,SystemResetWarning,0838.2,5.00,000.00,021.3,020.4,000.0,029.6,022.7,11.3,0000.0,0005.31,0003.29,0003.04
2023-10-31 06:23:00,SystemResetWarning,0838.2,5.01,000.00,021.3,020.4,000.0,029.6,022.7,11.4,0000.0,0005.18,0003.26,0003.04
2023-10-31 06:24:00,SystemResetWarning,0838.2,4.99,000.00,021.3,020.4,000.0,029.6,022.7,11.5,0000.0,0005.04,0003.22,0003.02
2023-10-31 06:25:00,SystemResetWarning,0838.2,4.99,000.00,021.3,020.4,000.0,029.6,022.7,11.6,0000.0,0005.11,0003.24,0003.01
2023-10-31 06:26:00,SystemResetWarning,0838.2,4.99,000.00,021.3,020.4,000.0,029.6,022.7,11.6,0000.0,0005.14,0003.25,0003.01
2023-10-31 06:27:00,SystemResetWarning,0838.2,5.00,000.00,021.3,020.4,000.0,029.6,022.7,11.7,0000.0,0005.06,0003.23,0003.01
2023-10-31 06:28:00,SystemResetWarning,0838.2,5.01,000.00,021.3,020.4,000.0,029.6,022.7,11.8,0000.0,0004.87,0003.22,0003.01
2023-10-31 06:29:00,SystemResetWarning,0838.1,5.00,000.00,021.3,020.4,000.0,029.6,022.7,11.9,0000.0,0004.77,0003.20,0003.01
2023-10-31 06:30:00,SystemResetWarning,0838.2,5.01,000.00,021.3,020.4,000.0,029.6,022.6,12.0,0000.0,0004.77,0003.19,0003.02
2023-10-31 06:31:00,SystemResetWarning,0838.2,5.00,000.00,021.2,020.3,000.0,029.6,022.6,12.0,0000.0,0004.81,0003.20,0003.02
2023-10-31 06:32:00,SystemResetWarning,0838.2,4.99,000.00,021.2,020.3,000.0,029.6,022.6,12.1,0000.0,0004.72,0003.21,0003.04
2023-10-31 06:33:00,SystemResetWarning,0838.2,5.00,000.00,021.2,020.3,000.0,029.6,022.6,12.2,0000.0,0004.14,0003.23,0003.05
2023-10-31 06:34:00,SystemResetWarning,0838.2,5.00,000.00,021.2,020.3,000.0,029.6,022.6,12.2,0000.0,0004.25,0003.25,0003.07
2023-10-31 06:35:00,SystemResetWarning,0838.2,5.00,000.00,021.2,020.3,000.0,029.6,022.7,12.2,0000.0,0004.33,0003.27,0003.08
2023-10-31 06:36:00,SystemResetWarning,0838.2,5.00,000.00,021.2,020.3,000.0,029.6,022.7,12.2,0000.0,0004.32,0003.27,0003.09
2023-10-31 06:37:00,SystemResetWarning,0838.2,5.01,000.00,021.2,020.3,000.0,029.6,022.7,12.3,0000.0,0004.30,0003.27,0003.09
2023-10-31 06:38:00,SystemResetWarning,0838.2,5.00,000.00,021.3,020.3,000.0,029.6,022.7,12.3,0000.0,0004.40,0003.29,0003.09
2023-10-31 06:39:00,SystemResetWarning,0838.2,5.01,000.00,021.2,020.3,000.0,029.6,022.7,12.2,0000.0,0004.51,0003.32,0003.11
2023-10-31 06:40:00,SystemResetWarning,0838.2,5.00,000.00,021.2,020.3,000.0,029.6,022.7,12.0,0000.0,0004.62,0003.36,0003.12
2023-10-31 06:41:00,SystemResetWarning,0838.2,4.99,000.00,021.2,020.3,000.0,029.6,022.6,12.1,0000.0,0004.68,0003.37,0003.13
2023-10-31 06:42:00,SystemResetWarning,0838.2,4.99,000.00,021.2,020.2,000.0,029.6,022.6,12.1,0000.0,0004.67,0003.38,0003.15
2023-10-31 06:43:00,SystemResetWarning,0838.2,4.99,000.00,021.2,020.2,000.0,029.6,022.6,12.1,0000.0,0004.81,0003.43,0003.19
2023-10-31 06:44:00,SystemResetWarning,0838.2,5.00,000.00,021.2,020.2,000.0,029.6,022.5,12.0,0000.0,0005.08,0003.52,0003.26
2023-10-31 06:45:00,SystemResetWarning,0838.1,5.00,000.00,021.2,020.1,000.0,029.6,022.5,11.9,0000.0,0005.30,0003.61,0003.35
2023-10-31 06:46:00,SystemResetWarning,0838.1,5.01,000.00,021.2,020.1,000.0,029.6,022.5,11.8,0000.0,0005.45,0003.66,0003.38
2023-10-31 06:47:00,SystemResetWarning,0838.2,5.00,000.00,021.2,020.1,000.0,029.6,022.5,11.7,0000.0,0005.52,0003.69,0003.40
2023-10-31 06:48:00,SystemResetWarning,0838.2,4.99,000.00,021.2,020.0,000.0,029.6,022.5,11.7,0000.0,0005.49,0003.70,0003.41
2023-10-31 06:49:00,SystemResetWarning,0838.2,4.99,000.00,021.1,020.0,000.0,029.6,022.5,11.7,0000.0,0005.52,0003.72,0003.43
2023-10-31 06:50:00,SystemResetWarning,0838.2,4.99,000.00,021.1,020.0,000.0,029.6,022.4,11.7,0000.0,0005.62,0003.73,0003.42
2023-10-31 06:51:00,SystemResetWarning,0838.3,5.00,000.00,021.1,020.0,000.0,029.6,022.4,11.7,0000.0,0005.77,0003.73,0003.42
2023-10-31 06:52:00,SystemResetWarning,0838.3,5.00,000.00,021.1,019.9,000.0,029.6,022.4,11.7,0000.0,0005.90,0003.74,0003.41
2023-10-31 06:53:00,SystemResetWarning,0838.3,5.00,000.00,021.1,019.9,000.0,029.6,022.4,11.6,0000.0,0005.92,0003.76,0003.42
2023-10-31 06:54:00,SystemResetWarning,0838.3,5.00,000.00,021.1,019.9,000.0,029.6,022.4,11.5,0000.0,0006.14,0003.79,0003.39
2023-10-31 06:55:00,SystemResetWarning,0838.3,5.01,000.00,021.1,019.9,000.0,029.6,022.3,11.5,0000.0,0006.04,0003.74,0003.33
2023-10-31 06:56:00,SystemResetWarning,0838.3,5.01,000.00,021.1,019.9,000.0,029.5,022.3,11.5,0000.0,0006.25,0003.66,0003.26
2023-10-31 06:57:00,SystemResetWarning,0838.3,5.00,000.00,021.0,019.9,000.0,029.5,022.3,11.4,0000.0,0006.65,0003.66,0003.26
2023-10-31 06:58:00,SystemResetWarning,0838.4,5.00,000.00,021.0,019.8,000.0,029.5,022.3,11.3,0000.0,0006.70,0003.69,0003.29
2023-10-31 06:59:00,SystemResetWarning,0838.4,5.00,000.00,021.0,019.8,000.0,029.5,022.3,11.3,0000.0,0006.83,0003.74,0003.34
